Location: La Chapelle
(48.3135°N, 1.3085°W)
Time: 10:51:15
(UTC+00:00)

Cosmos 1500 - Pass Details

Date: 03 March 2021
Orbit: 499 x 517 km, 82.5° (Epoch: 10 April)

Event Time Altitude Azimuth Distance (km) Brightness Sun altitude
Rises 18:47:12 0° 171° (S) 2,580 6.6 -9.9°
Reaches altitude 10° 18:49:22 10° 164° (SSE) 1,701 5.6 -10.2°
Maximum altitude 18:52:53 41° 94° (E) 734 3.5 -10.8°
Drops below altitude 10° 18:56:26 10° 23° (NNE) 1,716 5.6 -11.4°
Sets 18:58:38 0° 16° (NNE) 2,606 6.6 -11.8°
